Regional Weather Roundup
Issued by NWS Cleveland, OH

Home | Current Version | Previous Version | Text Only | Print | Product List | Glossary Off
Versions: 1 2 3 4 5 6 7 8 9 10 11 12 13 14 15 16 17 18 19 20 21 22 23 24 25 26 27 28 29 30 31 32 33 34 35 36 37 38 39 40 41 42 43 44 45 46 47 48 49 50

948
ASUS41 KCLE 240000
RWRCLE
OHIO REGIONAL WEATHER ROUNDUP
NATIONAL WEATHER SERVICE WILMINGTON, OH
800 PM EDT FRI JUN 23 2017

NOTE: "FAIR" INDICATES FEW OR NO CLOUDS BELOW 12,000 FEET WITH NO
SIGNIFICANT WEATHER AND/OR OBSTRUCTIONS TO VISIBILITY.

OHZ001>008-015>018-024>027-034-035-043-044-240100-
   NORTHWEST OHIO

CITY           SKY/WX    TMP DP  RH WIND       PRES   REMARKS
DEFIANCE       FAIR      71  60  68 NW8       29.69R
FINDLAY        FAIR      70  66  87 W8        29.68R
TOLEDO EXPRESS PTSUNNY   73  65  75 W10       29.66R
TOLEDO EXEC    CLOUDY    74  69  85 W7        29.66S
LIMA           PTSUNNY   69  68  96 W6        29.70R
$$

OHZ009>014-019>023-028>033-038-089-240100-
   NORTHEAST OHIO

CITY           SKY/WX    TMP DP  RH WIND       PRES   REMARKS
CLE-HOPKINS    CLOUDY    74  66  76 W15       29.67R
CLE-LAKEFRONT  MOCLDY    73  66  78 W12       29.63S
CUY CO. ARPT   CLOUDY    75  68  78 W12       29.66R
LORAIN-ELYRIA  CLOUDY    71  62  73 W13       29.67R
ASHTABULA      FAIR      73  68  84 SW8       29.65R
AKRON-CANTON   CLOUDY    71  67  87 SW6       29.68S
WOOSTER        MOCLDY    70  67  90 W8        29.70R
MANSFIELD      FAIR      68  67  96 W7        29.70S
YOUNGSTOWN     CLOUDY    71  67  87 SW7       29.67S
$$

OHZ042-051>053-060>062-070>072-077>081-240100-
  SOUTHWEST OHIO

CITY           SKY/WX    TMP DP  RH WIND       PRES   REMARKS
CINC-COVINGTON RAIN      68  68 100 E5        29.70F FOG
CINC-LUNKEN    RAIN      68  68 100 CALM      29.70F FOG
HAMILTON       LGT RAIN  69  69 100 CALM      29.71F
DAYTON         NOT AVBL
WRIGHT-PAT AFB NOT AVBL
DAYTON GENERAL LGT RAIN  68  66  93 CALM      29.72R
WILMINGTON     LGT RAIN  66  66 100 CALM      29.72F
$$

OHZ036-037-039>041-045>050-054>059-063>069-073>076-082>088-240100-
  CENTRAL AND SOUTHEAST OHIO

CITY           SKY/WX    TMP DP  RH WIND       PRES   REMARKS
COLUMBUS       RAIN      69  69 100 S8        29.71S
OSU AIRPORT    LGT RAIN  69  69 100 SW6       29.71F
BOLTON FIELD   NOT AVBL
RICKENBACK AFB NOT AVBL
NEWARK         LGT RAIN  68  66  93 S5        29.70S
MARION         CLOUDY    69  66  90 W8        29.71R
LANCASTER      RAIN      67  66  97 SW3       29.73S FOG
ZANESVILLE     LGT RAIN  69  66  90 SW3       29.72R
NEW PHILLY     LGT RAIN  70  69  97 SW3       29.72R
$$




USA.gov is the U.S. government's official web portal to all federal, state and local government web resources and services.